Location: MAS Eagle Lake Observatory
(44.8103°N, 93.9397°W)
Time: 00:13:47
(UTC-06:00)

Tiangong 2 - Visible Passes

Search period start: 17 December 2017 00:00
Search period end: 27 December 2017 00:00
Orbit: 386 x 390 km, 42.8° (Epoch: 16 December)

Date Brightness Start Highest point End Pass type
(mag) Time Alt. Az. Time Alt. Az. Time Alt. Az.
21 Dec 3.5 18:32:38 10° S 18:33:54 14° SSE 18:33:54 14° SSE visible
22 Dec 3.8 19:09:38 10° SW 19:10:33 17° SW 19:10:33 17° SW visible
23 Dec 2.7 18:11:36 10° SSW 18:14:12 23° SSE 18:14:52 22° SE visible
24 Dec 3.4 17:13:52 10° S 17:15:54 16° SSE 17:17:56 10° ESE visible
24 Dec 2.5 18:49:12 10° WSW 18:51:26 35° SSW 18:51:26 35° SSW visible
25 Dec 2.2 17:50:55 10° SW 17:53:51 34° SSE 17:55:41 18° ESE visible
25 Dec 4.3 19:27:18 10° W 19:27:58 15° WSW 19:27:58 15° WSW visible
26 Dec 1.3 18:28:51 10° WSW 18:31:58 56° S 18:32:12 54° SSE visible
